Hourly Data Report for October 18, 2013

All times are specified in Local Standard Time (LST). Add 1 hour to adjust for Daylight Saving Time where and when it is observed.

GJOA HAVEN A
NUNAVUT

68°38'08.000" N
95°51'01.000" W
46.90 m
2302337
71597
YHK

Download Data

Hourly Data (October 2013)
Hourly Data Report for October 18, 2013
Temp Definition
°C
Dew Point Temp Definition
°C
Rel Hum Definition
%
Wind Dir Definition
10's deg

Wind Spd Definition
km/h
Visibility Definition
km
Stn Press Definition
kPa
Hmdx Definition


Wind Chill Definition


Weather Definition


TIME
00:00 Legend Double Dagger -6.7 -7.2 96 35 28 16.1 99.64   -15 LegendNANA
01:00 Legend Double Dagger -6.8 -7.4 96 34 35 16.1 99.62   -16 LegendNANA
02:00 Legend Double Dagger -6.4 -6.9 96 35 35 16.1 99.60   -15 LegendNANA
03:00 Legend Double Dagger -6.3 -6.9 96 35 35 16.1 99.60   -15 LegendNANA
04:00 Legend Double Dagger -6.1 -6.6 96 35 37 3.6 99.60   -15 LegendNANA
05:00 Legend Double Dagger -5.4 -5.9 96 35 32 4.8 99.60   -14 LegendNANA
06:00 Legend Double Dagger -5.0 -5.4 97 35 33 4.8 99.58   -13 LegendNANA
07:00 Legend Double Dagger -4.5 -4.9 97 35 33 3.6 99.58   -13 LegendNANA
08:00 Legend Double Dagger -4.3 -4.7 97 35 32 4.0 99.56   -12 LegendNANA
09:00 Legend Double Dagger -3.7 -4.1 97 35 30 3.2 99.57   -11 LegendNANA
10:00 Legend Double Dagger -3.0 -3.3 98 35 28 2.4 99.59   -10 LegendNANA
11:00 Legend Double Dagger -2.0 -2.1 99 1 21 6.4 99.62   -8 LegendNANA
12:00 Legend Double Dagger -1.7 -2.0 98 3 24 8.1 99.64   -8 LegendNANA
13:00 Legend Double Dagger -1.8 -2.1 98 2 22 4.8 99.65   -8 LegendNANA
14:00 Legend Double Dagger -2.1 -2.4 98 2 26 2.8 99.68   -9 LegendNANA
15:00 Legend Double Dagger -2.5 -2.8 98 2 24 8.1 99.71   -9 LegendNANA
16:00 Legend Double Dagger -2.3 -2.6 98 2 26 4.0 99.75   -9 LegendNANA
17:00 Legend Double Dagger -2.1 -2.2 99 2 24 12.9 99.79   -8 LegendNANA
18:00 Legend Double Dagger -2.2 -2.5 98 4 32 16.1 99.82   -10 LegendNANA
19:00 Legend Double Dagger -2.0 -2.4 97 4 28 16.1 99.85   -9 LegendNANA
20:00 Legend Double Dagger -2.1 -2.5 97 3 22 11.3 99.91   -8 LegendNANA
21:00 Legend Double Dagger -2.3 -2.7 97 3 24 16.1 99.93   -9 LegendNANA
22:00 Legend Double Dagger -2.3 -2.6 98 3 22 9.7 99.96   -8 LegendNANA
23:00 Legend Double Dagger -2.2 -2.8 96 2 22 16.1 100.01   -8 LegendNANA

Notes on Data Quality.

Legend

  • E = Estimated
  • M = Missing
  • NA = Not Available
  • ‡ = Partner data that is not subject to review by the National Climate Archives
Date modified: